Location: Hokitika
(42.7170°S, 170.9670°E)
Time: 00:27:23
(UTC+13:00)

Cosmos 2208 Rocket - Pass Details

Date: 24 January 2019
Orbit: 754 x 806 km, 74.0° (Epoch: 22 February)

Event Time Altitude Azimuth Distance (km) Brightness Sun altitude
Rises 21:55:47 0° 200° (SSW) 3,248 8.3 -8.2°
Reaches altitude 10° 21:58:10 10° 199° (SSW) 2,318 7.4 -8.6°
Maximum altitude 22:03:26 84° 111° (ESE) 780 4.0 -9.4°
Drops below altitude 10° 22:08:42 10° 21° (NNE) 2,312 6.0 -10.1°
Enters shadow 22:09:01 - 21° (NNE) 2,434 6.1 -10.2°
